Tracking 29782 objects as of 13-Oct-2024
HD Live streaming from Space Station
objects crossing your sky now

COSMOS 2236 (GLONASS)

Track COSMOS 2236 (GLONASS) now!
COSMOS 2236 (GLONASS) is classified as:


NORAD ID: 22513
Int'l Code: 1993-010B
Perigee: 19,122.4 km
Apogee: 19,151.3 km
Inclination: 64.5 °
Period: 675.7 minutes
Semi major axis: 25507 km
RCS: 3.1089 m2 (large)
Launch date: February 17, 1993
Source: Commonwealth of Independent States (former USSR) (CIS)
Launch site: TYURATAM MISSILE AND SPACE COMPLEX (TTMTR)
Your satellite tracking list
Your tracking list is empty




NASA's NSSDC Master Catalog

Two Line Element Set (TLE):
1 22513U 93010B   24285.22037531  .00000078  00000-0  00000-0 0  9995
2 22513  64.5491  91.0784 0005674  89.1068  47.3860  2.13104570246291
Source of the keplerian elements: AFSPC